Flag for Germany Weather past 2 weeks in Rodgau, Hesse, Germany

Now
57 °F

Overcast.


Feels Like: 55 °F
Forecast: 42 / 61 °F
Wind: 8 mph from Northwest

Location: Frankfurt / M-Flughafen

Current Time: May 26, 2015 at 7:05:27 PM

Latest Report: May 26, 2015 at 6:00 PM


Visibility: 31 mi

Pressure: 30.14 "Hg

Humidity: 46%

Dew point: 36 °F

Location of RodgauLocation

Historic Weather in Rodgau — Graph

°F

Rodgau temperature yesterday

Maximum temperature yesterday: 67 °F (at 2:00 PM)
Minimum temperature yesterday: 55 °F (at 6:00 AM)
Average temperature yesterday: 61 °F

Past Weeks' High & Low Weather Summary

 TemperatureHumidityPressure
High83 °F (May 12, 5:00 PM)98% (May 13, 10:00 PM)30.35 "Hg (May 13, 10:00 PM)
Low40 °F (May 21, 4:00 AM)25% (May 18, 3:00 PM)29.67 "Hg (May 19, 3:00 AM)
Average59 °F59%30.05 "Hg
* Reported May 11 6:00 PM — May 26 6:00 PM, Rodgau, Weather by CustomWeather, © 2015

Note: Actual official high and low records may vary slightly from our data, if they occured in-between our weather recording intervals... More about our weather records

Advertising

Rodgau weather history for previous 24 hours

 ConditionsComfort  
Time TempWeatherWind HumidityBarometerVisibility
6:00 PM
Tue, May 26
57 °FOvercast.8 mph46%30.14 "Hg31 mi
5:00 PM60 °FPartly sunny.6 mph38%30.12 "Hg31 mi
4:00 PM59 °FPartly sunny.7 mph41%30.12 "Hg31 mi
3:00 PM60 °FPartly sunny.3 mph38%30.11 "Hg31 mi
2:00 PM58 °FOvercast.5 mph42%30.11 "Hg31 mi
1:00 PM59 °FOvercast.5 mph41%30.10 "Hg31 mi
12:00 PM57 °FOvercast.5 mph49%30.09 "Hg22 mi
10:00 AM54 °FOvercast.6 mph67%30.08 "Hg22 mi
9:00 AM54 °FOvercast.7 mph72%30.06 "Hg22 mi
8:00 AM53 °FOvercast.3 mph75%30.05 "Hg25 mi
7:00 AM52 °FOvercast.3 mph78%30.03 "Hg25 mi
4:00 AM47 °FFog.2 mph97%30.00 "Hg22 mi
3:00 AM47 °FFog.3 mph97%30.00 "Hg22 mi
2:00 AM48 °FFog.1 mph97%29.98 "Hg22 mi
1:00 AM51 °FFog.2 mph94%29.98 "Hg22 mi
12:00 AM56 °FOvercast.2 mph84%29.98 "Hg22 mi
10:00 PM
Mon, May 25
58 °FOvercast.3 mph82%29.95 "Hg17 mi
9:00 PM59 °FOvercast.1 mph84%29.93 "Hg17 mi
8:00 PM60 °FOvercast.2 mph80%29.93 "Hg19 mi
7:00 PM59 °FOvercast.2 mph82%29.93 "Hg19 mi
Weather by CustomWeather, © 2015

See weather overviewHow to use our weather pages